Location: Fort Wayne
(41.1310°N, 85.1290°W)
Time: 15:45:57
(UTC-05:00)

Vanguard 3 - Visible Passes

Search period start: 25 November 2014 00:00
Search period end: 05 December 2014 00:00
Orbit: 508 x 3278 km, 33.3° (Epoch: 24 November)

Date Brightness Start Highest point End Pass type
(mag) Time Alt. Az. Time Alt. Az. Time Alt. Az.
25 Nov 10.6 18:49:37 10° W 19:07:10 53° SSW 19:25:11 10° SE visible
25 Nov 11.0 21:06:54 10° W 21:21:48 28° SW 21:32:34 15° S visible
26 Nov 10.5 17:36:03 10° W 17:52:24 61° SSW 18:11:46 10° ESE visible
26 Nov 10.9 19:51:20 10° W 20:08:03 39° SW 20:24:11 10° SSE visible
26 Nov 11.4 22:13:44 10° WSW 22:21:24 14° SW 22:28:33 10° SSW visible
27 Nov 10.7 18:37:03 10° W 18:53:44 49° SSW 19:11:52 10° SE visible
27 Nov 11.3 20:54:35 10° W 21:08:17 24° SW 21:21:09 10° S visible
28 Nov 10.6 17:23:39 10° W 17:39:06 58° SSW 17:58:25 10° SE visible
28 Nov 11.1 19:38:51 10° W 19:54:33 35° SW 20:10:32 10° SSE visible
28 Nov 11.6 22:04:52 10° WSW 22:07:58 11° SW 22:11:01 10° SW visible
29 Nov 10.9 18:24:37 10° W 18:40:19 45° SSW 18:58:19 10° SE visible
29 Nov 11.4 20:42:39 10° W 20:54:47 21° SW 21:06:42 10° S visible
30 Nov 10.7 17:11:21 10° W 17:25:52 54° SSW 17:44:53 10° SE visible
30 Nov 11.3 19:26:35 10° W 19:41:05 31° SW 19:56:33 10° SSE visible
01 Dec 11.1 18:12:20 10° W 18:26:58 40° SSW 18:44:31 10° SSE visible
01 Dec 11.6 20:31:19 10° WSW 20:41:21 17° SW 20:51:33 10° SSW visible
02 Dec 11.5 19:14:35 10° W 19:27:41 26° SW 19:42:11 10° S visible
03 Dec 11.2 18:00:14 10° W 18:13:41 35° SSW 18:30:25 10° SSE visible
03 Dec 11.8 20:21:07 10° WSW 20:28:01 13° SW 20:35:09 10° SSW visible
04 Dec 11.7 19:02:58 10° W 19:14:23 22° SW 19:27:19 10° S visible
